Location: Newport
(44.6370°N, 124.0520°W)
Time: 19:50:39
(UTC-07:00)

Vanguard 2 - All Passes

Search period start: 24 June 2018 00:00
Search period end: 04 July 2018 00:00
Orbit: 554 x 2939 km, 32.9° (Epoch: 24 June)

Date Brightness Start Highest point End Pass type
(mag) Time Alt. Az. Time Alt. Az. Time Alt. Az.
24 Jun - 01:39:22 10° S 01:42:22 12° SSE 01:45:01 10° SE visible
24 Jun - 03:45:11 10° SW 03:51:00 21° S 03:55:15 10° ESE visible
24 Jun - 05:54:27 10° WSW 05:58:54 22° S 06:02:22 10° SE daylight
24 Jun - 08:05:30 10° SSW 08:06:11 10° SSW 08:06:51 10° SSW daylight
25 Jun - 01:54:36 10° SSW 02:00:21 16° SSE 02:04:51 10° SE visible
25 Jun - 04:02:36 10° SW 04:08:55 25° S 04:13:24 10° ESE visible
25 Jun - 06:12:27 10° WSW 06:16:42 21° SSW 06:20:04 10° SE daylight
26 Jun - 02:11:03 10° SSW 02:18:21 21° SSE 02:23:38 10° ESE visible
26 Jun - 04:20:15 10° SW 04:26:50 28° S 04:31:24 10° ESE visible
26 Jun - 06:30:36 10° WSW 06:34:27 19° SSW 06:37:35 10° SSE daylight
27 Jun - 00:21:37 10° S 00:27:10 14° SSE 00:31:46 10° SE visible
27 Jun - 02:28:03 10° SW 02:36:19 26° S 02:42:00 10° ESE visible
27 Jun - 04:38:04 10° WSW 04:44:42 29° S 04:49:17 10° SE visible
27 Jun - 06:49:00 10° WSW 06:52:09 15° SSW 06:54:50 10° SSE daylight
28 Jun - 00:37:03 10° SSW 00:45:08 19° SSE 00:51:17 10° ESE visible
28 Jun - 02:45:25 10° SW 02:54:16 30° S 03:00:10 10° ESE visible
28 Jun - 04:56:02 10° WSW 05:02:33 28° S 05:07:03 10° SE visible
28 Jun - 07:07:56 10° SW 07:09:47 12° SSW 07:11:28 10° S daylight
28 Jun - 22:52:26 10° SSE 22:53:30 10° SSE 22:54:32 10° SE visible
29 Jun - 00:53:25 10° SSW 01:03:08 24° SSE 01:10:03 10° ESE visible
29 Jun - 03:03:02 10° SW 03:12:13 34° S 03:18:11 10° ESE visible
29 Jun - 05:14:07 10° WSW 05:20:20 26° SSW 05:24:42 10° SE daylight
29 Jun - 23:04:07 10° S 23:11:26 15° SSE 23:17:31 10° ESE visible
30 Jun - 01:10:20 10° SW 01:21:06 30° SSE 01:28:27 10° ESE visible
30 Jun - 03:20:50 10° WSW 03:30:08 36° S 03:36:05 10° ESE visible
30 Jun - 05:32:20 10° WSW 05:38:02 23° SSW 05:42:11 10° SSE daylight
30 Jun - 23:19:24 10° SSW 23:29:22 21° SSE 23:37:06 10° ESE visible
01 Jul - 01:27:36 10° SW 01:39:05 34° S 01:46:38 10° ESE visible
01 Jul - 03:38:46 10° WSW 03:48:00 36° S 03:53:55 10° ESE visible
01 Jul - 05:50:45 10° WSW 05:55:41 19° SSW 05:59:26 10° SSE daylight
01 Jul - 21:36:15 10° SE 21:37:23 10° SE 21:38:31 10° SE visible
01 Jul - 23:35:37 10° SSW 23:47:18 26° SSE 23:55:56 10° ESE visible
02 Jul - 01:45:09 10° SW 01:57:02 38° S 02:04:41 10° ESE visible
02 Jul - 03:56:50 10° WSW 04:05:50 35° SSW 04:11:39 10° SE visible
02 Jul - 06:09:31 10° WSW 06:13:13 15° SW 06:16:15 10° S daylight
02 Jul - 21:47:06 10° S 21:55:13 15° SE 22:02:17 10° ESE visible
02 Jul - 23:52:22 10° SW 00:05:15 32° SSE 00:14:24 10° ESE visible
03 Jul - 02:02:54 10° WSW 02:14:59 41° S 02:22:38 10° ESE visible
03 Jul - 04:14:58 10° WSW 04:23:37 32° SSW 04:29:16 10° SE visible
03 Jul - 06:29:34 10° SW 06:30:41 10° SW 06:31:43 10° SSW daylight
03 Jul - 22:02:04 10° S 22:13:03 21° SSE 22:22:09 10° ESE visible
